Retour au catalogue

SOLRAD 3/INJUN 1

ActifScienceLEO
NORAD 117·PAYLOAD·🇺🇸 United States

Lancé Jun 29, 1961 depuis Cape Canaveral Space Force Station

Loading…

Prochains Passages (prochaines 24 heures)

TLE

FraisSource: Space-Track

Époque: Sep 9, 2026, 21:48 UTC

1 00117U 61015B   26252.90851800 -.00000041  00000-0  28399-4 0  9991
2 00117  66.8125 158.5942 0083568 240.9737 118.2950 13.90198019305831

Suivez SOLRAD 3/INJUN 1 en temps réel avec AllMySat

Download on the App Store